Home   Weather   Kristiansund   Past weeks
Flag for Norway

Past Weather in Kristiansund, Norway — Yesterday and Last 2 Weeks

Now
54 °F

Mostly cloudy.


Feels Like: 54 °F
Forecast: 66 / 47 °F
Wind: No wind

Location: Kristiansund / Kvernberget

Current Time: May 21, 2019 at 2:43:48 am

Latest Report: May 21, 2019 at 1:50 am


Visibility: N/A

Pressure: 29.92 "Hg

Humidity: 77%

Dew Point: 46 °F

Location of KristiansundLocation

Past Weather in Kristiansund — Graph

°F

Kristiansund Temperature Yesterday

Maximum temperature yesterday: 64 °F (at 10:20 am)
Minimum temperature yesterday: 48 °F (at 2:20 am)
Average temperature yesterday: 57 °F

High & Low Weather Summary for the Past Weeks

 TemperatureHumidityPressure
High73 °F (May 18, 3:20 pm)100% (May 16, 12:20 am)30.66 "Hg (May 16, 12:20 am)
Low30 °F (May 6, 4:20 am)27% (May 18, 12:20 pm)29.47 "Hg (May 9, 9:20 pm)
Average47 °F71%30.06 "Hg
* Reported May 6 1:20 am — May 21 1:20 am, Kristiansund. Weather by CustomWeather, © 2019

Note: Actual official high and low records may vary slightly from our data, if they occured in-between our weather recording intervals... More about our weather records

Advertising

Kristiansund Weather History for the Previous 24 Hours

Scroll right to see more
 ConditionsComfort  
Time TempWeatherWind HumidityBarometerVisibility
1:20 am
Tue, May 21
52 °FOvercast.3 mph88%29.92 "HgN/A
12:50 am52 °FOvercast.3 mph88%29.92 "HgN/A
12:20 am52 °FOvercast.3 mph88%29.92 "HgN/A
11:50 pm
Mon, May 20
52 °FOvercast.3 mph88%29.92 "HgN/A
11:20 pm52 °FClear.3 mph88%29.92 "Hg10 mi
10:50 pm54 °FPassing clouds.5 mph82%29.92 "HgN/A
10:20 pm54 °FSunny.5 mph82%29.92 "Hg10 mi
9:50 pm55 °FSunny.3 mph77%29.92 "Hg10 mi
9:20 pm55 °FSunny.3 mph77%29.92 "Hg10 mi
8:50 pm57 °FSunny.5 mph72%29.92 "Hg10 mi
8:20 pm59 °FSunny.2 mph68%29.92 "Hg10 mi
7:50 pm59 °FSunny.2 mph68%29.92 "Hg10 mi
7:20 pm59 °FSunny.2 mph68%29.92 "Hg10 mi
6:50 pm61 °FSunny.3 mph59%29.92 "Hg10 mi
6:20 pm63 °FSunny.1 mph52%29.92 "Hg10 mi
5:50 pm63 °FSunny.3 mph59%29.92 "Hg10 mi
5:20 pm63 °FSunny.2 mph56%29.92 "Hg10 mi
4:50 pm63 °FSunny.3 mph56%29.95 "Hg10 mi
4:20 pm63 °FSunny.3 mph52%29.95 "Hg10 mi
3:50 pm64 °FSunny.5 mph49%29.95 "Hg10 mi
3:20 pm64 °FSunny.2 mph49%29.95 "Hg10 mi
2:50 pm63 °FSunny.2 mph52%29.95 "Hg10 mi
2:20 pm63 °FSunny.2 mph56%29.95 "Hg10 mi
1:50 pm63 °FSunny.6 mph56%29.95 "Hg10 mi
1:20 pm61 °FSunny.9 mph55%29.95 "Hg10 mi
12:50 pm61 °FPassing clouds.8 mph55%29.95 "HgN/A
12:20 pm61 °FSunny.3 mph55%29.95 "Hg10 mi
11:50 am61 °FPassing clouds.5 mph68%29.95 "HgN/A
11:20 am61 °FFog.5 mph68%29.95 "HgN/A
10:50 am61 °FPassing clouds.6 mph63%29.95 "HgN/A
10:20 am64 °FSunny.2 mph60%29.95 "Hg10 mi
9:50 am63 °FSunny.2 mph64%29.95 "Hg10 mi
9:20 am59 °FSunny.2 mph72%29.95 "Hg10 mi
8:50 am59 °FSunny.1 mph72%29.95 "Hg10 mi
7:50 am55 °FSunny.1 mph82%29.95 "Hg10 mi
7:20 am52 °FSunny.2 mph88%29.95 "Hg10 mi
6:50 am52 °FClear.2 mph88%29.95 "HgN/A
6:20 am50 °FScattered clouds.2 mph94%29.95 "HgN/A
5:50 am50 °FScattered clouds.No wind94%29.95 "Hg1 mi
5:20 am50 °FMostly cloudy.2 mph94%29.95 "Hg0 mi
4:20 am50 °FCool.3 mph94%29.92 "HgN/A
3:50 am50 °FCool.3 mph94%29.92 "HgN/A
3:20 am50 °FCool.5 mph88%29.92 "HgN/A
2:50 am50 °FCool.3 mph88%29.92 "HgN/A
2:20 am48 °FCool.No wind94%29.92 "HgN/A
Weather by CustomWeather, © 2019

See weather overview